Location: Newark
(44.2003°N, 3.2583°E)
Time: 05:04:23
(UTC+00:00)

OTV 5 (USA 277) - Pass Details

Date: 21 October 2019
Orbit: 310 x 324 km, 54.5° (Epoch: 17 October)

Event Time Altitude Azimuth Distance (km) Brightness Sun altitude
Exits shadow 05:19:48 11° 240° (WSW) 1,203 ? -9.5°
Maximum altitude 05:20:11 11° 232° (SW) 1,190 ? -9.4°
Drops below altitude 10° 05:20:54 10° 217° (SW) 1,228 ? -9.3°
Sets 05:24:03 0° 176° (S) 2,048 ? -8.7°
